DMSP 5D-2 F13 DEB, 42298

Orbit data source: Space-Track

DMSP 5D-2 F13 DEB, 42298 is space debris in SSO originally from a launch on Fri, 24 Mar 1995 UTC launched from the Air Force Western Test Range (AFWTR). Debris objects in space refer to the collection of defunct objects orbiting the Earth. Examples of debris include non-operational satellites, rocket bodies, and fragments generated from explosions, collisions, or faulty payload assembly.

Loading next visibility...
Identifier
42298, 1995-015HQ
Orbit
SSO
Country
Flag of USUS
Related business
Manufacturer
Unknown
Mission
Spacecraft
Bus & Motor
Unknown
Mass
Unknown
Launch date (UTC)
1995-03-24 (31 years ago)
Launch vehicle
Unknown
Launch site
Air Force Western Test Range (AFWTR)
Object type
Payload
Rocket body
Debris
Shape & HBR
Unknown shape, 0.1 m
Radar Cross Section
Small (<0.1 m²)

Expand to show TLE details & history
Last TLE update: 1 week ago

TLE from 1 week ago
0 DMSP 5D-2 F13 DEB
1 42298U 95015HQ  26027.72930615  .00005350  00000-0  48498-2 0  9993
2 42298  98.7254   4.8905 0256709 267.7060  89.4678 13.70163752514574
Epoch: 2026-01-27T17:30Z
TLE epoch observation values (Epoch: 2026-01-27T17:30:12.051Z)
Latitude
-0.00004°
Longitude
-24.66624°
Altitude
1,004.932 km
Speed
7.348 km/s
True Right ascension
00h 19m 33s
True Declination
0° 00' 00"
Sunlit
Object was in daylight at epoch
Visualization orbit readout
Latitude
Unknown
Longitude
Unknown
Altitude
Unknown
Speed
Unknown
Apparent Right ascension
Unknown
Apparent Declination
Unknown
Sunlit
N/A
Visualization observer readout
Local Sidereal Time
02:38:07
Azimuth
Unknown
Elevation
Unknown
Doppler factor
Unknown
Orbital elements
Apogee altitude
1,185.513 km
Perigee altitude
806.901 km
Semi-major axis
7,374.344 km
Eccentricity
0.02567
Inclination
98.7254°
RAAN
4.8905°
Arg. of periapsis
267.706°
True anomaly
92.40893°
Mean anomaly
89.4678°
Eccentric anomaly
90.93844°
Mean motion
3.42735 °/min
Orbital period
105.04 mins
BSTAR
0.0048498
Loading maneuver chart data...
Computing Atmospheric mass density...

Documentation

Showing up to 5 results
|